Vertical_Velocity
1 -5 -4 -1 0 -2 0 0 -3 -3 1 1 -2 1 -0 -1 -0 -0 1 -1 -1 -1 2 -1 1 5 -2 -1 -2 0 -1 -0 -1 1 0 -1 -1 -0 -1 -2 -0 -2 -1
-2 -5 -7 0 -1 1 -0 2 -0 -2 -1 1 -2 0 1 -1 -2 1 1 -1 0 -1 -2 -1 -1 -2 -3 -0 -1 -1 0 0 1 -0 1 0 -0 -1 -1 -2 -1 -2 -1
-0 -2 -4 -2 0 0 0 -1 0 -1 -1 0 -1 -1 0 1 -3 -0 -0 3 1 1 0 1 -1 -2 -1 -2 -1 0 -0 0 -2 -1 -2 -0 1 -0 -0 -1 -1 -0 -2
-3 -3 0 -2 -1 -1 0 -0 0 0 -1 -0 0 -1 -1 -1 1 0 -0 0 0 -1 -0 0 -3 -2 -1 -0 -2 -2 -2 -2 3 4 0 1 0 -1 0 -1 -2 -3 -1
-2 -3 -5 1 -1 -1 1 -1 -1 0 0 -1 2 -1 2 0 0 -1 -0 5 -2 -2 -1 -1 1 -1 -2 -1 0 -1 -2 -1 -1 -1 -2 -1 -0 -1 -1 0 -0 -2 -2
-1 0 -4 -4 2 -0 -2 1 -1 -2 -1 0 0 -0 4 -2 1 -0 -1 -0 -2 -2 -1 0 -1 0 1 -1 -1 1 -1 -1 -2 -2 -1 -0 0 0 -1 -1 -1 -0 -1
3 -1 -4 -3 -2 -0 -2 -1 2 -1 -1 -0 1 3 9 -2 0 -1 2 -2 -3 1 -1 2 1 -1 -1 0 2 -1 1 -3 -1 -3 -1 -0 -1 -2 -2 -1 -0 -0 -1
-1 -1 4 -2 -1 -4 0 -3 0 3 -1 2 1 7 8 -1 -2 -2 -1 -1 -0 1 -0 1 1 2 -1 1 -1 2 1 1 -1 -3 -0 0 0 0 -1 -1 -2 -2 -1
6 12 4 -1 -1 -1 1 -4 -2 2 1 2 2 6 2 -2 -1 -2 -1 0 -0 -1 -1 0 -0 1 1 -0 1 -1 0 0 1 -1 -0 0 1 1 1 0 -1 -1 -3
8 -4 -6 10 -4 0 -3 4 -1 3 4 1 3 7 0 -1 0 -2 -1 0 0 -1 -1 -2 -1 -2 -2 0 -1 -1 -1 -1 -1 2 0 0 -1 -2 -2 -1 -1 -2 0
-5 1 11 -0 16 5 2 2 -1 2 3 3 4 6 0 -0 -1 0 -2 0 -0 -2 -1 -0 -2 1 -0 1 0 1 -1 -0 1 2 -1 -0 0 0 0 1 1 1 1
4 -2 -16 -15 -32 30 -4 2 6 -1 3 6 1 6 -2 -2 -1 -0 -2 1 -0 -1 0 -1 -0 -1 -1 1 -1 0 3 -1 1 0 -1 -1 0 1 1 -0 -0 -2 -2
17 13 2 -12 -58 38 27 -1 2 -0 -1 11 5 0 1 1 0 -0 -5 -2 -0 -0 -1 -1 -1 0 -3 -4 1 0 -2 1 -1 -2 -3 -1 -2 -1 -2 -1 -1 0 1
-15 5 -4 1 -28 -52 27 4 -4 1 -1 1 -8 4 -2 -3 -1 -1 -1 -2 -2 0 0 -2 -0 -1 -3 -3 -1 -2 1 -3 -2 1 -1 1 -2 -2 -3 -3 -2 -2 -3
5 -1 1 13 -21 5 4 60 -3 -1 0 -2 -4 -1 2 -3 -2 -1 1 -1 -1 -1 -4 -1 -5 1 -2 -1 2 -2 1 -3 -2 5 -1 -1 -1 -1 0 -2 -2 -3 -0
-2 11 -4 -5 -2 -25 -56 74 4 -1 6 -1 0 2 5 -2 -1 -0 -0 -3 -1 -2 -1 1 -1 -1 -2 -3 -1 -2 -1 1 1 0 -5 -4 -0 -2 -0 -2 0 0 2
0 -2 4 3 -33 -8 0 33 11 -1 -1 -1 2 5 1 -3 -2 -2 -1 2 -0 1 0 0 -0 1 -2 3 2 0 -2 -1 2 1 5 -2 3 -3 -1 2 1 -0 -1
-5 -3 -3 -7 -7 -29 -25 16 26 11 1 -2 -4 -1 2 -1 -1 -2 -4 -4 -3 -4 -0 -2 -0 1 -1 -3 1 -2 -2 -3 -4 1 6 4 0 -0 2 -0 -4 -1 -1
10 5 7 9 -1 -51 -4 -11 24 -2 6 -2 -2 1 2 2 2 4 3 2 2 1 -2 -1 -1 -2 1 -4 0 0 -0 6 1 -2 -5 4 11 3 -0 -2 -2 2 -1
-10 6 3 6 12 0 -23 3 2 31 7 5 8 0 1 1 2 3 2 3 2 1 -1 -3 -1 -1 -2 -1 -2 2 1 0 -0 -5 1 11 0 -3 -4 -3 -1 -1 -1
17 -0 -1 0 -4 -13 -3 7 -8 -7 18 17 12 4 4 6 2 -0 -0 -0 -1 -3 -1 -8 -1 -7 1 1 -6 3 5 -1 -1 11 8 -5 -5 -4 -3 0 -0 -3 -1
-4 4 11 6 12 2 -1 6 -3 7 20 5 -3 -3 2 -0 -0 -1 2 3 3 -1 -2 -1 2 1 1 -1 -1 5 -0 -2 2 8 4 -2 -3 -0 2 -2 -2 -2 -2
-3 10 -4 12 -1 2 5 14 8 6 15 1 1 9 6 9 14 16 3 1 6 7 4 1 -3 1 -3 0 -8 -11 6 2 5 15 -1 3 -5 -2 5 1 1 -4 1
-11 25 -0 -3 5 -3 6 12 16 7 -1 -0 3 19 -2 -9 5 6 -6 -2 -3 1 -1 5 3 -5 1 -12 -0 -9 3 -5 -2 0 -0 -5 2 0 2 -3 4 -5 -3
19 17 -3 9 -4 -6 16 15 2 -7 -13 -5 3 0 -10 -13 -0 7 -5 -7 -11 1 4 -16 2 2 -7 8 2 -3 3 2 1 1 -4 -6 -6 -2 1 -4 -0 -1 -3
21 -7 22 1 3 -6 -1 5 -20 -8 16 -5 -3 9 3 -3 -9 9 7 -8 2 5 -18 -6 -10 3 44 -9 -8 2 -1 -5 -7 0 -1 1 -1 2 -3 -4 3 -0 1
Height
1481 1487 1492 1495 1498 1502 1505 1507 1510 1514 1517 1519 1521 1523 1525 1527 1529 1530 1532 1533 1535 1536 1538 1540 1541 1542 1543 1543 1544 1544 1544 1544 1545 1546 1546 1546 1546 1546 1547 1547 1547 1547 1548
1478 1485 1491 1495 1498 1501 1505 1507 1510 1513 1516 1519 1522 1524 1526 1528 1530 1532 1533 1535 1536 1537 1539 1541 1543 1543 1544 1545 1546 1547 1547 1548 1548 1548 1548 1548 1548 1548 1549 1549 1549 1549 1550
1478 1484 1489 1494 1498 1502 1504 1507 1510 1513 1516 1519 1522 1524 1526 1528 1530 1533 1535 1537 1538 1539 1540 1542 1543 1545 1547 1548 1549 1549 1550 1551 1551 1551 1550 1551 1551 1550 1550 1550 1551 1552 1552
1479 1484 1488 1492 1497 1501 1504 1507 1509 1512 1514 1518 1521 1524 1527 1529 1531 1534 1536 1539 1539 1540 1541 1544 1544 1547 1548 1550 1551 1552 1553 1553 1554 1554 1553 1553 1553 1553 1552 1552 1553 1553 1553
1479 1485 1489 1492 1495 1500 1503 1506 1508 1511 1514 1517 1521 1524 1527 1529 1532 1534 1538 1540 1541 1542 1543 1545 1547 1548 1550 1551 1553 1554 1554 1555 1555 1556 1555 1555 1555 1554 1555 1554 1554 1554 1555
1481 1484 1489 1492 1496 1499 1502 1505 1507 1510 1513 1517 1521 1524 1527 1529 1532 1534 1538 1541 1542 1543 1545 1547 1549 1550 1552 1553 1554 1555 1556 1556 1556 1557 1557 1557 1557 1556 1556 1556 1556 1556 1557
1482 1484 1487 1491 1495 1499 1501 1504 1507 1509 1512 1516 1521 1524 1527 1529 1532 1535 1538 1540 1542 1544 1547 1549 1550 1552 1553 1554 1555 1557 1557 1557 1559 1558 1559 1559 1558 1558 1558 1558 1558 1558 1558
1482 1483 1485 1488 1493 1498 1501 1503 1507 1509 1512 1516 1520 1524 1526 1528 1531 1535 1539 1540 1542 1545 1548 1550 1552 1553 1554 1556 1557 1558 1558 1558 1559 1560 1560 1560 1560 1559 1559 1560 1560 1560 1559
1484 1485 1486 1485 1493 1496 1500 1502 1507 1509 1512 1516 1519 1523 1526 1528 1531 1535 1538 1541 1543 1546 1549 1551 1553 1555 1556 1557 1558 1559 1559 1560 1560 1561 1561 1562 1562 1561 1561 1561 1561 1561 1561
1481 1480 1482 1489 1491 1495 1500 1503 1505 1509 1511 1514 1519 1521 1525 1526 1530 1534 1538 1540 1543 1546 1549 1552 1554 1556 1557 1558 1559 1560 1561 1561 1561 1562 1562 1562 1562 1562 1562 1562 1562 1562 1561
1478 1478 1479 1483 1493 1499 1501 1503 1506 1509 1511 1512 1516 1520 1523 1525 1529 1532 1537 1540 1543 1546 1549 1552 1554 1556 1557 1559 1560 1561 1561 1562 1562 1563 1563 1563 1563 1563 1563 1563 1563 1562 1562
1472 1476 1479 1482 1490 1501 1501 1503 1504 1508 1510 1511 1514 1517 1521 1525 1528 1531 1536 1539 1542 1546 1549 1552 1554 1556 1557 1559 1560 1561 1562 1561 1564 1563 1563 1564 1564 1564 1564 1563 1563 1563 1562
1471 1472 1478 1478 1488 1488 1498 1502 1502 1505 1508 1508 1511 1515 1520 1524 1527 1529 1533 1538 1542 1545 1548 1551 1553 1555 1557 1557 1559 1561 1561 1562 1563 1563 1563 1563 1564 1564 1564 1563 1563 1562 1562
1466 1471 1474 1476 1478 1484 1491 1498 1499 1502 1505 1507 1509 1514 1517 1522 1526 1528 1532 1537 1541 1545 1548 1550 1553 1554 1556 1558 1559 1561 1561 1562 1563 1563 1563 1563 1563 1563 1563 1563 1563 1562 1561
1459 1464 1466 1467 1467 1478 1487 1489 1494 1498 1501 1504 1507 1513 1517 1520 1524 1527 1531 1535 1540 1544 1546 1549 1551 1553 1555 1556 1558 1560 1561 1561 1562 1563 1562 1562 1562 1562 1562 1562 1561 1561 1560
1455 1458 1459 1462 1465 1470 1483 1484 1490 1493 1498 1502 1506 1511 1515 1518 1524 1527 1529 1534 1539 1542 1546 1548 1550 1552 1553 1555 1557 1558 1559 1561 1562 1562 1561 1562 1561 1561 1561 1560 1559 1559 1558
1448 1451 1452 1449 1458 1476 1478 1461 1486 1491 1494 1500 1505 1508 1512 1516 1521 1526 1529 1533 1537 1541 1544 1547 1549 1551 1552 1553 1555 1556 1557 1558 1559 1560 1560 1560 1560 1560 1559 1558 1558 1556 1556
1446 1449 1449 1448 1447 1468 1475 1474 1484 1489 1490 1497 1503 1507 1511 1515 1520 1524 1528 1531 1535 1539 1541 1544 1547 1548 1550 1552 1552 1553 1555 1557 1557 1559 1559 1559 1558 1558 1557 1556 1555 1554 1552
1445 1446 1446 1447 1445 1467 1475 1476 1482 1485 1491 1495 1502 1506 1510 1514 1518 1522 1526 1530 1533 1536 1539 1542 1544 1546 1548 1549 1550 1551 1553 1554 1555 1556 1557 1557 1556 1555 1555 1554 1552 1550 1548
1439 1443 1445 1448 1449 1453 1473 1476 1480 1484 1489 1495 1500 1505 1509 1513 1517 1521 1525 1528 1531 1533 1536 1539 1542 1544 1546 1548 1549 1549 1551 1552 1552 1554 1554 1554 1552 1552 1551 1550 1549 1548 1545
1437 1438 1442 1445 1453 1451 1470 1475 1479 1483 1488 1494 1498 1504 1509 1512 1516 1519 1523 1526 1528 1531 1532 1535 1538 1541 1543 1545 1546 1547 1548 1548 1549 1550 1550 1550 1549 1549 1547 1546 1545 1544 1544
1436 1437 1438 1443 1449 1455 1466 1472 1479 1481 1487 1494 1498 1504 1508 1511 1514 1518 1521 1525 1526 1528 1530 1533 1535 1538 1538 1541 1543 1544 1545 1546 1545 1546 1546 1547 1547 1547 1545 1543 1542 1541 1540
1432 1433 1436 1443 1449 1460 1466 1471 1478 1482 1488 1493 1498 1502 1506 1510 1514 1516 1518 1522 1524 1524 1527 1530 1533 1535 1535 1533 1538 1541 1539 1541 1541 1541 1541 1542 1543 1542 1541 1540 1538 1537 1536
1428 1429 1436 1444 1453 1457 1465 1470 1476 1480 1484 1493 1498 1500 1500 1505 1512 1512 1515 1519 1521 1525 1524 1526 1527 1528 1529 1529 1529 1532 1535 1538 1537 1537 1537 1539 1540 1539 1538 1536 1535 1533 1531
1426 1429 1438 1447 1451 1456 1463 1466 1473 1475 1488 1494 1497 1497 1500 1505 1509 1510 1512 1513 1518 1518 1520 1522 1525 1523 1522 1521 1521 1526 1529 1533 1533 1533 1533 1535 1535 1534 1533 1532 1532 1530 1528
1420 1430 1435 1444 1449 1456 1465 1469 1476 1483 1486 1491 1493 1495 1499 1501 1503 1506 1506 1510 1509 1509 1513 1519 1520 1519 1518 1514 1519 1521 1521 1525 1526 1529 1530 1529 1531 1530 1530 1529 1528 1525 1524